Dewpoint
15 15 16 16 17 17 17 17 17 16 16 15 15 15 16 16 16 15 16 16 15 15 14 15 14 15 14 15 15 15 15 15 15 14 14 14 13 13 13 14 14 13 13
12 15 16 17 17 17 17 14 15 16 16 16 17 16 16 15 16 16 16 16 16 16 16 16 16 15 15 15 15 16 15 15 16 15 15 14 14 13 13 13 13 13 13
16 15 16 17 18 14 13 12 12 11 10 12 15 16 16 16 16 16 16 17 16 16 16 16 16 16 16 16 16 16 16 16 16 16 15 15 15 15 15 14 13 12 13
16 16 17 12 11 14 13 12 12 11 9 9 10 11 12 14 15 15 15 15 15 16 16 16 16 16 16 16 16 16 16 16 16 15 15 15 15 14 14 15 14 14 14
16 16 7 7 9 10 10 10 11 11 11 10 10 10 10 10 11 12 12 12 12 13 15 16 16 16 16 16 16 16 16 16 16 16 16 16 16 15 15 15 15 15 14
15 10 6 8 10 8 7 7 6 6 6 6 6 7 8 8 8 9 10 10 11 11 12 13 13 13 13 13 13 13 13 13 13 13 14 14 15 15 15 15 15 14 14
12 11 11 9 8 5 5 4 4 5 6 6 7 8 9 10 10 10 11 11 11 10 10 9 9 10 10 10 10 9 9 10 10 10 10 10 10 10 12 11 11 11 11
12 12 11 9 7 7 7 4 3 4 4 4 3 4 6 9 10 10 11 10 10 10 10 11 11 12 12 12 11 11 10 10 10 11 11 12 11 11 11 11 11 10 10
12 12 10 9 8 9 7 0 1 3 4 4 5 6 7 9 10 10 10 10 10 9 9 9 10 10 10 10 11 11 11 10 12 12 13 13 12 12 12 12 12 12 12
13 12 10 10 10 8 2 2 4 4 6 8 9 10 10 10 10 10 10 9 9 10 9 9 9 10 11 11 11 11 11 11 11 11 11 11 11 11 11 10 11 11 12
13 11 11 10 9 5 1 3 5 6 9 9 9 9 9 9 9 9 9 9 9 9 9 9 9 9 9 9 10 10 10 10 10 10 10 9 8 7 8 9 11 11 11
13 12 11 10 7 1 3 5 6 8 9 9 10 10 10 9 9 7 5 6 6 6 7 7 7 7 7 7 7 8 9 9 10 10 9 9 8 8 8 9 10 10 11
12 12 11 9 2 3 5 6 6 6 7 7 7 5 2 3 4 4 5 5 5 6 6 6 6 6 8 8 9 9 9 10 10 11 10 10 11 11 11 11 11 12 12
13 12 9 2 3 5 5 5 6 6 5 2 -0 -3 -3 -5 -5 2 3 4 4 4 5 5 5 8 8 9 9 9 9 9 9 9 9 9 9 9 10 10 10 11 11
11 9 2 3 6 6 3 6 6 5 5 3 2 2 0 -2 -6 -7 -4 -1 1 2 4 6 6 7 7 7 7 7 7 7 7 8 8 8 8 8 9 9 9 9 10
5 1 2 5 6 3 4 7 5 5 5 4 3 2 1 -1 -5 -7 -4 -1 2 3 5 6 6 5 5 5 5 5 6 6 7 7 7 8 8 8 8 8 9 9 10
-0 2 5 7 5 5 5 5 5 5 6 5 4 2 1 0 -3 -7 -7 -0 3 4 3 2 0 -1 -2 -1 -1 -1 -1 0 4 6 7 7 6 6 7 7 7 7 7
3 4 6 7 6 5 5 5 5 4 5 6 5 2 1 1 -2 -4 -8 -4 2 2 -1 -3 -5 -7 -7 -7 -7 -8 -8 -6 -4 -2 1 5 6 6 5 5 5 6 7
3 5 4 1 5 5 4 5 4 1 2 6 4 1 2 1 -1 -2 -5 -7 -3 -2 -3 -3 -5 -6 -6 -6 -5 -5 -5 -5 -6 -6 -5 -3 -2 -1 -1 0 1 3 5
5 4 3 1 2 1 2 2 1 1 2 4 0 1 2 1 0 -1 -2 -4 -2 -2 -2 -3 -4 -5 -4 -4 -4 -4 -3 -4 -4 -4 -4 -5 -4 -3 -2 -1 1 3 3
6 5 0 1 1 0 0 0 -0 1 1 -0 -0 0 1 -0 0 0 1 -2 -3 -3 -3 -2 -2 -2 -1 -1 -1 -2 -3 -4 -4 -4 -4 -4 -3 -3 -2 -1 0 1 3
4 4 1 0 -0 -0 -1 -1 -1 0 -1 0 0 0 0 0 1 1 1 1 1 2 1 -0 -1 0 1 1 -0 -2 -3 -4 -4 -4 -4 -4 -4 -4 -3 -0 1 2 2
2 2 -0 -0 0 -0 -1 -0 -0 -0 1 2 1 1 0 1 1 1 1 2 2 2 2 2 1 1 1 1 0 -2 -4 -6 -6 -6 -7 -6 -5 -4 -4 -4 0 2 2
1 0 -0 -0 0 0 0 1 0 0 1 1 1 0 1 1 1 1 1 2 2 2 2 3 3 2 1 0 -1 -4 -5 -4 -3 -2 -2 -3 -4 -5 -4 -4 -4 0 1
1 0 0 0 1 1 0 1 1 1 1 0 0 1 1 2 1 1 0 1 1 2 2 2 3 1 -2 -3 -3 -3 -2 -2 -2 -2 -2 -2 -2 -2 -2 -2 -2 -3 -1
2 1 1 1 2 3 3 1 1 1 0 -0 0 0 1 2 2 2 1 1 1 1 1 1 1 -2 -3 -2 -2 -2 -2 -2 -1 -1 -1 -1 -0 -0 -0 -1 -1 -1 -2
Wind_Speed
11 10 7 4 3 4 7 6 5 5 5 5 4 5 7 7 6 6 7 8 10 10 13 14 15 14 14 15 14 14 12 13 16 17 16 15 16 15 13 13 14 15 16
10 10 8 6 5 6 8 7 5 5 5 6 5 6 7 8 8 9 8 9 11 11 10 12 13 15 16 16 16 17 18 18 20 23 21 19 19 18 18 19 20 21 20
7 8 8 7 8 6 3 3 4 5 5 5 4 4 5 6 8 9 9 10 12 13 13 14 14 14 16 16 18 19 19 20 22 24 25 23 23 21 21 21 21 22 21
9 9 8 6 4 3 4 5 7 6 6 6 7 7 7 6 7 7 7 8 9 11 13 14 15 16 17 17 18 19 20 21 22 23 24 24 24 22 23 23 24 22 21
15 12 10 6 4 4 6 8 9 9 9 9 9 9 10 11 12 13 13 12 11 10 10 10 11 12 13 14 15 17 18 19 20 21 22 23 24 24 23 24 25 24 25
15 16 13 8 5 5 7 9 9 9 9 8 8 8 9 11 13 14 14 15 15 15 15 15 15 15 16 17 18 19 21 22 22 22 22 23 22 21 21 22 23 23 26
14 10 8 5 5 5 5 6 8 9 10 10 8 8 10 10 11 11 12 13 13 14 15 18 19 20 23 24 24 24 23 24 25 25 26 26 27 26 27 27 27 27 28
10 8 7 5 6 6 7 9 11 12 11 10 10 11 11 11 11 11 12 13 14 15 17 18 19 19 21 21 22 22 22 21 21 23 24 24 24 23 24 26 25 28 30
17 12 12 9 8 9 10 11 10 9 9 8 6 5 5 6 6 7 9 11 12 13 14 15 16 17 19 20 22 24 24 21 19 19 21 22 23 22 22 24 25 26 30
21 14 12 12 11 12 11 10 9 8 7 5 3 3 3 5 9 10 10 10 12 13 13 14 16 17 18 17 20 21 24 21 24 25 26 27 28 27 26 27 28 30 31
23 17 14 13 13 12 10 9 7 4 4 5 4 3 6 8 10 13 15 18 18 19 18 17 18 19 20 20 21 23 25 26 25 27 27 26 25 25 24 23 24 25 28
22 17 14 14 13 11 9 7 6 5 5 7 7 6 9 12 13 14 14 13 13 13 13 13 13 13 13 14 15 18 21 21 21 21 21 21 21 20 20 21 22 24 26
19 15 14 13 11 8 6 6 4 3 2 2 0 2 5 7 9 10 10 11 11 12 13 14 15 15 12 11 12 11 12 14 14 13 14 15 16 18 18 19 20 22 25
14 14 14 12 9 6 4 4 3 3 4 5 4 6 8 9 8 6 6 6 8 8 9 10 12 9 8 8 8 9 8 10 12 14 17 19 21 21 21 22 24 24 25
16 15 13 10 9 8 7 7 5 6 4 5 7 9 11 12 11 9 8 9 10 9 8 8 8 5 5 4 5 5 6 10 12 13 14 15 15 16 17 20 23 26 22
16 14 13 12 12 11 10 11 9 5 3 3 6 10 12 13 12 11 11 11 11 11 8 5 6 8 9 10 11 11 11 10 10 11 12 12 15 18 19 18 18 18 19
14 15 15 14 13 12 12 11 7 4 3 2 4 8 11 13 12 11 10 9 10 10 7 8 10 11 12 12 13 14 15 15 14 12 13 14 16 18 18 18 19 21 23
13 12 13 15 13 12 11 8 5 5 6 6 4 7 9 11 11 9 9 7 6 5 6 7 9 9 10 11 12 13 14 14 14 15 15 14 14 17 19 20 22 23 23
14 15 14 11 14 12 11 11 8 7 9 10 7 6 7 9 10 9 8 7 4 4 5 5 6 7 8 10 12 13 14 15 16 16 15 15 16 17 18 19 20 20 21
17 16 12 10 10 9 9 11 10 8 10 7 4 6 6 9 9 8 10 7 4 4 5 5 6 6 8 9 11 12 14 15 15 16 17 17 17 18 19 20 20 22 23
20 16 12 10 9 7 6 8 7 7 6 1 3 4 6 8 8 7 8 6 5 6 5 5 6 7 8 10 11 13 14 15 16 16 17 18 19 19 19 21 23 23 23
18 16 15 13 8 4 6 4 3 5 1 2 3 5 5 5 6 6 6 6 6 7 9 8 8 9 9 10 12 13 14 15 16 16 17 17 19 20 20 20 21 23 23
15 18 17 14 9 6 4 2 2 3 2 1 3 4 3 4 5 7 8 7 7 7 10 11 11 10 9 11 12 14 14 14 14 16 17 18 19 20 21 22 21 22 24
20 18 17 14 9 6 5 4 5 5 7 7 6 6 6 6 6 7 8 9 10 10 11 12 14 13 12 12 12 11 11 12 13 15 16 18 19 20 22 23 22 21 22
21 18 15 13 10 12 12 12 10 11 11 9 11 13 12 10 11 10 9 9 13 15 15 16 16 14 12 10 9 9 9 11 14 15 16 18 19 20 21 23 25 25 22
19 18 16 17 17 14 18 19 16 15 11 13 14 13 12 15 15 15 13 13 13 14 13 14 13 10 7 6 6 7 9 10 12 14 16 18 19 21 22 24 24 25 26
Wind_Direction
194 200 211 210 242 251 267 286 312 299 292 287 279 242 236 229 228 235 241 242 246 242 234 241 243 249 253 258 265 260 266 268 271 279 286 289 289 289 288 284 286 287 286
190 198 202 224 228 235 269 282 299 315 309 296 279 260 253 250 242 239 239 241 247 250 247 252 253 251 253 256 260 260 263 270 275 281 282 283 286 284 281 280 280 284 285
185 189 207 229 242 249 241 274 293 309 300 289 291 288 282 268 262 262 264 262 258 253 248 248 254 252 256 259 260 263 266 269 273 274 279 283 285 286 284 279 279 281 282
207 192 192 199 204 230 258 279 295 297 293 289 279 274 263 265 269 270 275 282 280 275 267 260 258 259 260 262 263 265 265 267 270 274 276 280 280 283 283 285 285 283 282
202 185 184 193 215 256 283 293 297 294 288 281 279 275 271 269 266 269 275 280 281 283 281 280 271 270 270 268 267 269 270 271 272 273 275 278 280 282 283 286 286 287 279
198 187 185 196 225 277 298 303 304 305 303 299 292 284 279 274 275 276 276 276 276 275 272 271 272 272 270 271 276 277 277 277 276 276 276 278 281 284 284 286 289 292 294
185 189 192 207 261 289 288 297 304 302 301 299 296 285 275 278 279 281 286 290 290 287 284 280 276 275 276 276 275 275 275 276 277 278 277 277 280 280 282 282 284 286 286
216 217 246 264 283 286 293 304 299 293 292 289 287 283 279 276 278 283 284 284 283 282 282 282 281 280 279 280 282 282 280 278 276 275 277 280 282 285 284 285 283 282 283
240 238 256 264 276 282 296 301 294 298 298 299 302 305 292 291 293 300 304 302 301 298 292 288 285 281 277 276 275 278 280 282 279 277 278 281 283 282 284 283 284 285 282
241 235 248 264 274 288 297 294 290 293 287 290 311 313 302 300 308 318 319 316 312 306 303 298 290 281 277 282 283 281 282 284 277 276 275 276 278 278 277 276 279 279 281
231 240 251 267 279 288 286 282 282 276 261 270 276 280 298 304 305 302 303 304 302 297 290 290 291 282 275 273 273 276 278 281 281 284 286 286 288 284 281 272 270 275 277
221 234 246 260 273 276 274 272 266 252 255 267 274 285 300 303 308 311 320 326 330 328 321 313 309 306 301 294 289 279 276 279 286 291 294 294 292 289 284 277 271 271 273
213 229 248 262 268 264 268 264 252 267 192 165 129 356 346 336 339 338 332 327 327 329 322 316 311 311 307 305 303 300 297 293 291 297 302 303 303 293 291 286 279 277 273
231 242 253 258 245 229 233 229 212 171 135 102 66 54 32 12 2 353 347 346 338 333 323 327 337 341 336 315 301 305 313 319 313 302 297 294 292 295 298 294 295 295 290
241 242 242 228 218 225 226 204 192 159 120 74 58 36 20 7 4 3 8 3 357 356 0 339 339 355 347 336 340 338 342 322 310 308 308 310 314 312 306 299 294 290 298
226 224 216 212 208 211 205 192 175 166 114 57 25 18 9 6 8 13 8 10 5 0 1 5 31 36 32 26 25 21 14 9 9 355 342 330 321 316 315 318 318 313 303
212 202 199 198 194 192 188 185 180 199 234 250 337 351 355 2 7 11 12 5 8 10 34 55 56 50 41 35 33 32 30 25 16 10 1 9 6 357 346 341 333 328 325
190 193 191 191 194 197 199 206 224 250 266 248 270 320 343 349 354 6 8 2 2 9 30 40 40 38 34 30 27 25 22 19 14 12 8 2 356 350 350 356 1 0 353
183 184 185 196 207 212 227 229 234 244 254 230 251 297 315 334 347 0 356 352 333 349 0 16 27 27 24 21 19 18 14 13 12 12 10 5 1 359 359 0 357 355 355
192 192 200 198 193 200 210 216 228 251 225 203 265 284 297 328 344 352 356 349 334 344 0 7 12 7 9 9 5 5 5 3 5 6 8 7 5 4 4 1 359 357 3
194 189 191 187 189 207 228 231 229 196 182 225 329 300 321 337 344 331 334 318 329 340 338 337 335 341 346 352 353 356 358 359 357 359 359 1 2 5 4 4 4 2 359
196 197 196 193 197 204 194 191 180 176 157 30 15 0 335 323 333 304 294 313 328 354 358 341 328 327 324 332 341 346 351 353 354 355 357 356 358 0 0 358 1 2 1
202 194 192 190 192 188 160 153 153 162 185 232 342 338 294 296 314 313 282 287 312 331 345 346 338 331 328 326 330 336 342 350 355 358 1 359 358 358 358 357 355 355 357
194 203 202 201 204 207 193 185 182 200 224 239 260 293 276 290 297 312 311 298 295 308 314 318 325 327 323 321 322 331 341 351 357 359 359 1 2 2 3 1 356 351 348
201 205 210 219 226 236 232 225 228 234 244 274 277 265 274 279 287 295 304 302 297 293 295 299 305 313 314 318 324 336 343 345 346 350 351 354 354 353 354 356 355 353 348
209 219 229 221 224 248 246 236 240 245 259 267 279 265 276 278 288 289 291 304 308 298 293 293 288 297 305 315 328 333 337 336 338 338 340 342 342 343 344 344 343 345 347
Height
1529 1531 1534 1535 1538 1539 1539 1539 1539 1539 1539 1540 1541 1542 1542 1543 1544 1544 1546 1547 1548 1550 1551 1553 1554 1554 1555 1556 1556 1557 1557 1558 1557 1557 1557 1558 1558 1558 1558 1557 1557 1556 1555
1526 1529 1532 1535 1537 1538 1539 1538 1538 1538 1538 1538 1539 1541 1541 1542 1542 1543 1544 1545 1546 1547 1548 1549 1550 1551 1551 1552 1552 1553 1553 1554 1553 1552 1552 1552 1553 1553 1553 1552 1552 1551 1550
1524 1527 1530 1534 1536 1537 1538 1539 1539 1538 1537 1538 1538 1539 1539 1540 1540 1541 1542 1542 1544 1544 1545 1545 1546 1547 1547 1547 1548 1548 1548 1549 1548 1546 1546 1547 1546 1547 1546 1545 1545 1545 1544
1522 1524 1527 1531 1533 1536 1537 1538 1539 1537 1536 1537 1537 1537 1537 1539 1539 1540 1540 1540 1540 1541 1541 1541 1541 1541 1542 1543 1543 1543 1542 1542 1542 1541 1540 1540 1540 1541 1540 1539 1538 1538 1537
1520 1520 1524 1527 1530 1533 1534 1535 1535 1535 1535 1535 1535 1535 1535 1535 1536 1537 1537 1537 1538 1538 1538 1538 1538 1538 1538 1538 1538 1538 1537 1537 1536 1536 1535 1534 1534 1534 1534 1533 1530 1530 1529
1523 1519 1520 1524 1528 1529 1531 1533 1533 1533 1533 1532 1531 1531 1531 1532 1532 1533 1533 1533 1533 1533 1534 1535 1535 1535 1534 1534 1533 1533 1533 1532 1532 1531 1530 1529 1528 1528 1528 1527 1525 1523 1521
1522 1526 1525 1524 1527 1527 1528 1530 1531 1532 1531 1530 1529 1529 1529 1529 1529 1529 1529 1528 1528 1528 1528 1528 1529 1529 1528 1528 1528 1527 1527 1526 1525 1525 1523 1523 1521 1522 1521 1520 1519 1517 1514
1528 1523 1526 1525 1526 1527 1528 1527 1529 1529 1529 1528 1526 1525 1526 1526 1525 1525 1525 1525 1524 1523 1523 1523 1523 1523 1522 1522 1521 1521 1521 1521 1520 1518 1517 1516 1515 1515 1514 1512 1511 1509 1508
1528 1523 1525 1525 1525 1527 1526 1526 1527 1526 1526 1525 1524 1523 1523 1524 1524 1523 1522 1523 1522 1521 1520 1519 1518 1518 1516 1515 1515 1514 1515 1515 1514 1513 1512 1511 1510 1509 1508 1505 1504 1503 1499
1523 1521 1521 1523 1524 1524 1523 1523 1524 1524 1524 1524 1524 1523 1522 1521 1522 1522 1521 1519 1519 1518 1518 1517 1516 1513 1512 1511 1510 1509 1507 1508 1507 1506 1506 1504 1503 1502 1501 1499 1498 1496 1494
1518 1517 1518 1521 1522 1521 1521 1521 1523 1522 1522 1523 1521 1520 1521 1520 1518 1518 1517 1516 1514 1514 1512 1510 1511 1509 1507 1506 1504 1503 1502 1500 1500 1499 1498 1496 1495 1494 1493 1492 1491 1489 1487
1513 1515 1516 1518 1518 1518 1520 1521 1520 1520 1520 1520 1520 1518 1517 1518 1516 1515 1513 1511 1508 1505 1507 1505 1503 1503 1501 1499 1498 1496 1495 1493 1492 1492 1491 1489 1488 1487 1486 1484 1484 1483 1481
1509 1511 1513 1514 1515 1516 1517 1518 1519 1519 1517 1518 1518 1516 1514 1516 1515 1513 1510 1509 1507 1504 1503 1500 1499 1497 1499 1496 1495 1493 1491 1490 1488 1487 1486 1485 1483 1481 1480 1478 1477 1476 1473
1504 1505 1508 1510 1513 1515 1515 1518 1518 1519 1519 1517 1517 1515 1514 1515 1513 1512 1511 1508 1506 1503 1501 1498 1497 1495 1494 1495 1492 1491 1489 1487 1485 1484 1482 1481 1479 1478 1476 1474 1470 1469 1466
1500 1503 1506 1509 1512 1514 1515 1516 1518 1519 1517 1516 1516 1516 1515 1514 1512 1509 1507 1508 1506 1501 1498 1499 1495 1494 1494 1493 1491 1488 1486 1485 1483 1481 1479 1476 1475 1473 1472 1468 1465 1463 1461
1498 1501 1505 1508 1510 1513 1515 1516 1516 1517 1515 1516 1515 1515 1515 1513 1510 1507 1506 1503 1504 1503 1498 1498 1494 1493 1491 1492 1490 1487 1484 1482 1480 1479 1477 1474 1472 1470 1468 1465 1461 1458 1455
1497 1499 1501 1505 1508 1512 1514 1514 1512 1514 1514 1514 1514 1514 1514 1511 1510 1507 1502 1504 1504 1504 1499 1499 1495 1493 1493 1492 1490 1487 1485 1482 1480 1478 1476 1472 1470 1468 1465 1460 1456 1453 1450
1494 1497 1502 1505 1509 1512 1513 1511 1509 1512 1513 1514 1512 1512 1511 1512 1510 1505 1502 1503 1504 1504 1501 1499 1496 1494 1495 1494 1491 1488 1486 1483 1480 1478 1474 1471 1470 1467 1463 1459 1455 1451 1447
1493 1498 1502 1505 1507 1510 1510 1509 1509 1511 1510 1511 1511 1510 1510 1509 1507 1504 1504 1501 1504 1503 1502 1498 1496 1496 1495 1493 1491 1489 1486 1483 1481 1477 1474 1472 1469 1466 1462 1458 1454 1451 1447
1494 1497 1501 1503 1505 1506 1507 1508 1508 1507 1507 1507 1509 1508 1509 1506 1503 1502 1501 1504 1505 1503 1500 1498 1496 1496 1494 1492 1490 1488 1486 1484 1480 1477 1474 1471 1468 1465 1460 1456 1453 1449 1446
1493 1496 1500 1500 1502 1504 1504 1505 1504 1503 1503 1504 1505 1505 1504 1502 1500 1502 1504 1505 1504 1501 1498 1496 1495 1494 1493 1491 1489 1487 1484 1482 1479 1477 1474 1471 1467 1463 1460 1456 1452 1448 1445
1491 1492 1496 1498 1499 1500 1501 1501 1499 1499 1500 1502 1502 1502 1502 1502 1501 1502 1504 1504 1503 1500 1497 1495 1494 1493 1491 1489 1487 1484 1482 1479 1478 1476 1472 1469 1466 1462 1458 1455 1451 1447 1444
1490 1492 1493 1495 1497 1498 1497 1496 1496 1496 1498 1500 1501 1501 1501 1502 1501 1501 1501 1501 1500 1498 1496 1494 1492 1490 1488 1486 1484 1482 1480 1478 1476 1474 1471 1468 1465 1461 1457 1454 1450 1446 1443
1487 1491 1492 1492 1493 1493 1493 1494 1495 1496 1498 1499 1499 1500 1499 1500 1501 1499 1498 1498 1496 1495 1493 1491 1490 1487 1485 1483 1481 1479 1478 1477 1475 1472 1469 1466 1463 1460 1456 1452 1449 1446 1442
1484 1486 1487 1488 1488 1490 1492 1492 1493 1494 1495 1496 1495 1495 1495 1496 1497 1496 1495 1494 1492 1490 1490 1488 1485 1483 1481 1480 1479 1477 1476 1475 1473 1470 1467 1464 1462 1459 1455 1452 1449 1445 1441
1480 1481 1483 1483 1484 1486 1486 1487 1488 1489 1490 1491 1491 1491 1492 1493 1493 1492 1491 1490 1488 1486 1484 1483 1481 1480 1478 1477 1476 1475 1474 1472 1470 1468 1465 1463 1460 1457 1454 1451 1447 1443 1439